Change the Weather History Date:

Thursday, March 20, 2014

  Actual Average (KHBI) Record (KHBI)
Temperature  
Mean Temperature 49 °F -  
Max Temperature 64 °F 63 °F 88 °F (1948)
Min Temperature 34 °F 40 °F 26 °F (1981)
Degree Days  
Heating Degree Days 16    
Moisture  
Dew Point 33 °F    
Average Humidity 67    
Maximum Humidity 100    
Minimum Humidity 18    
Precipitation  
Precipitation 0.00 in - - ()
Sea Level Pressure  
Sea Level Pressure 29.98 in    
Wind  
Wind Speed 2 mph (West)    
Max Wind Speed 10 mph    
Max Gust Speed 17 mph    
Visibility 7 miles    
Events Fog    
Averages and records for this station are not official NWS values.
T = Trace of Precipitation, MM = Missing Value Source: NWS Daily Summary

Daily Weather History Graph

Daily Weather History Graph

Search for Another Location

Airport or City:

Trip Planner

Search our weather history database for the weather conditions in past years. The results will help you decide how hot, cold, wet, or windy it might be!

Date:

Astronomy

Mar. 20, 2014 Rise Set
Actual Time 7:21 AM EDT 7:29 PM EDT
Civil Twilight 6:56 AM EDT 7:55 PM EDT
Nautical Twilight 6:26 AM EDT 8:25 PM EDT
Astronomical Twilight 5:56 AM EDT 8:55 PM EDT
Moon 11:39 PM EDT (3/20) 9:34 AM EDT (3/20)
Length of Visible Light 12h 59m
Length of Day
12h 08m
Waning Gibbous, 84% of the Moon is Illuminated
Mar 20
Waning Gibbous
Mar 23
Last Quarter
Mar 30
New
Apr 7
First Quarter
Apr 15
Full

Hourly Weather History & Observations

Time (EDT) Temp. Windchill Dew Point Humidity Pressure Visibility Wind Dir Wind Speed Gust Speed Precip Events Conditions
12:15 AM 42.4 °F - 42.4 °F 100% 29.99 in 4.0 mi Calm Calm - N/A   Clear
12:35 AM 42.3 °F 40.5 °F 42.3 °F 100% 29.99 in 4.0 mi SW 3.5 mph - N/A   Clear
12:55 AM 41.7 °F 39.8 °F 41.7 °F 100% 29.97 in 4.0 mi SSW 3.5 mph - N/A   Clear
1:15 AM 41.0 °F - 41.0 °F 100% 29.97 in 3.0 mi Calm Calm - N/A   Clear
1:35 AM 37.6 °F - 37.6 °F 100% 29.96 in 1.0 mi Calm Calm - N/A   Overcast
1:55 AM 37.4 °F - 37.4 °F 100% 29.96 in 1.0 mi Calm Calm - N/A   Overcast
2:15 AM 36.9 °F - 36.9 °F 100% 29.97 in 1.0 mi Calm Calm - N/A   Mostly Cloudy
2:35 AM 36.3 °F - 36.3 °F 100% 29.97 in 1.5 mi Calm Calm - N/A   Mostly Cloudy
2:55 AM 36.9 °F - 36.9 °F 100% 29.96 in 0.5 mi Calm Calm - N/A Fog Fog
3:15 AM 36.3 °F - 36.3 °F 100% 29.95 in 0.2 mi Calm Calm - N/A Fog Fog
3:35 AM 36.1 °F - 36.1 °F 100% 29.95 in 2.5 mi Calm Calm - N/A   Scattered Clouds
3:55 AM 35.6 °F - 35.6 °F 100% 29.94 in 0.2 mi Calm Calm - N/A Fog Fog
4:15 AM 36.1 °F - 36.1 °F 100% 29.93 in 0.5 mi Calm Calm - N/A Fog Fog
4:35 AM 36.9 °F - 36.9 °F 100% 29.94 in 0.5 mi Calm Calm - N/A Fog Fog
4:55 AM 36.0 °F - 36.0 °F 100% 29.94 in 3.0 mi Calm Calm - N/A   Mostly Cloudy
5:15 AM 35.8 °F - 35.8 °F 100% 29.95 in 3.0 mi Calm Calm - N/A   Overcast
5:30 AM 35.8 °F - 35.8 °F 100% 29.95 in 4.0 mi Calm Calm - N/A   Overcast
5:55 AM 35.8 °F - 35.8 °F 100% 29.96 in 2.0 mi Calm Calm - N/A   Overcast
6:15 AM 35.2 °F - 35.2 °F 100% 29.96 in 2.5 mi Calm Calm - N/A   Scattered Clouds
6:35 AM 35.2 °F - 35.2 °F 100% 29.96 in 5.0 mi Calm Calm - N/A   Clear
6:55 AM 35.1 °F - 35.1 °F 100% 29.97 in 5.0 mi Calm Calm - N/A   Clear
7:15 AM 35.6 °F - 35.6 °F 100% 29.98 in 10.0 mi Calm Calm - N/A   Scattered Clouds
7:35 AM 34.9 °F - 34.9 °F 100% 29.99 in 7.0 mi Calm Calm - N/A   Scattered Clouds
7:55 AM 35.6 °F - 35.6 °F 100% 30.00 in 5.0 mi Calm Calm - N/A   Mostly Cloudy
8:15 AM 35.4 °F - 35.4 °F 100% 30.00 in 5.0 mi Calm Calm - N/A   Scattered Clouds
8:35 AM 36.1 °F - 36.1 °F 100% 30.01 in 3.0 mi Calm Calm - N/A   Clear
8:55 AM 38.3 °F - 38.3 °F 100% 30.01 in 3.0 mi Calm Calm - N/A   Clear
9:15 AM 43.9 °F - 43.9 °F 100% 30.02 in 4.0 mi Calm Calm - N/A   Clear
9:35 AM 46.2 °F - 45.1 °F 96% 30.02 in 7.0 mi Calm Calm - N/A   Clear
9:55 AM 48.9 °F - 45.1 °F 87% 30.02 in 10.0 mi WNW 3.5 mph - N/A   Clear
10:15 AM 52.5 °F - 43.3 °F 71% 30.03 in 10.0 mi NW 5.8 mph - N/A   Clear
10:35 AM 53.8 °F - 41.0 °F 62% 30.03 in 10.0 mi NNW 8.1 mph - N/A   Clear
10:55 AM 55.6 °F - 42.3 °F 61% 30.03 in 10.0 mi NNW 5.8 mph - N/A   Clear
11:15 AM 55.9 °F - 41.4 °F 58% 30.03 in 10.0 mi West 4.6 mph - N/A   Clear
11:35 AM 57.0 °F - 40.1 °F 53% 30.03 in 10.0 mi West 5.8 mph - N/A   Clear
11:55 AM 58.1 °F - 38.3 °F 48% 30.02 in 10.0 mi NW 8.1 mph - N/A   Clear
12:10 PM 59.0 °F - 34.3 °F 40% 30.02 in 10.0 mi West 6.9 mph - N/A   Clear
12:35 PM 60.1 °F - 34.3 °F 38% 30.01 in 10.0 mi NW 8.1 mph - N/A   Clear
12:55 PM 60.4 °F - 35.1 °F 39% 30.01 in 10.0 mi West 6.9 mph - N/A   Clear
1:15 PM 61.5 °F - 35.6 °F 38% 30.01 in 10.0 mi North 4.6 mph - N/A   Clear
1:35 PM 61.7 °F - 31.6 °F 32% 30.00 in 10.0 mi West 6.9 mph - N/A   Clear
1:55 PM 62.6 °F - 30.4 °F 30% 30.00 in 10.0 mi West 6.9 mph 16.1 mph N/A   Clear
2:15 PM 62.8 °F - 29.8 °F 29% 29.99 in 10.0 mi NNW 6.9 mph - N/A   Clear
2:35 PM 63.1 °F - 28.0 °F 27% 29.98 in 10.0 mi WSW 9.2 mph 17.3 mph N/A   Clear
2:55 PM 63.1 °F - 28.2 °F 27% 29.97 in 10.0 mi WNW 6.9 mph - N/A   Clear
3:15 PM 63.5 °F - 28.4 °F 27% 29.96 in 10.0 mi West 3.5 mph - N/A   Clear
3:35 PM 63.7 °F - 28.2 °F 26% 29.96 in 10.0 mi WNW 4.6 mph - N/A   Clear
3:55 PM 63.5 °F - 26.4 °F 25% 29.96 in 10.0 mi WNW 6.9 mph - N/A   Clear
4:15 PM 64.0 °F - 27.3 °F 25% 29.95 in 10.0 mi West 5.8 mph - N/A   Clear
4:35 PM 64.4 °F - 25.5 °F 23% 29.95 in 10.0 mi West 10.4 mph 16.1 mph N/A   Clear
4:55 PM 64.4 °F - 25.3 °F 23% 29.95 in 10.0 mi WSW 9.2 mph - N/A   Clear
5:15 PM 64.9 °F - 25.3 °F 22% 29.95 in 10.0 mi West 9.2 mph - N/A   Clear
5:35 PM 64.9 °F - 25.7 °F 23% 29.95 in 10.0 mi West 6.9 mph - N/A   Clear
5:55 PM 64.6 °F - 23.5 °F 21% 29.95 in 10.0 mi SW 5.8 mph - N/A   Clear
6:15 PM 64.4 °F - 23.5 °F 21% 29.95 in 10.0 mi WNW 5.8 mph - N/A   Clear
6:35 PM 63.7 °F - 24.4 °F 22% 29.95 in 10.0 mi West 3.5 mph - N/A   Clear
6:55 PM 63.0 °F - 22.8 °F 22% 29.96 in 10.0 mi West 3.5 mph - N/A   Clear
7:15 PM 61.7 °F - 17.2 °F 18% 29.96 in 10.0 mi West 4.6 mph - N/A   Clear
7:35 PM 59.7 °F - 18.3 °F 20% 29.96 in 10.0 mi Calm Calm - N/A   Clear
7:55 PM 54.3 °F - 25.9 °F 33% 29.97 in 10.0 mi Calm Calm - N/A   Clear
8:15 PM 49.5 °F - 29.1 °F 46% 29.98 in 10.0 mi Calm Calm - N/A   Clear
8:35 PM 46.4 °F - 29.7 °F 52% 29.98 in 10.0 mi Calm Calm - N/A   Clear
8:55 PM 44.4 °F - 29.5 °F 56% 29.99 in 10.0 mi Calm Calm - N/A   Clear
9:15 PM 42.6 °F - 28.4 °F 57% 29.99 in 10.0 mi Calm Calm - N/A   Clear
9:35 PM 41.2 °F - 31.5 °F 68% 30.00 in 10.0 mi Calm Calm - N/A   Clear
9:55 PM 40.3 °F - 30.7 °F 69% 30.01 in 10.0 mi Calm Calm - N/A   Clear
10:15 PM 37.9 °F - 30.0 °F 73% 30.01 in 10.0 mi Calm Calm - N/A   Clear
10:35 PM 38.1 °F - 29.8 °F 72% 30.02 in 10.0 mi Calm Calm - N/A   Clear
10:55 PM 37.2 °F - 30.0 °F 75% 30.03 in 10.0 mi Calm Calm - N/A   Clear
11:15 PM 36.0 °F - 29.3 °F 77% 30.04 in 10.0 mi Calm Calm - N/A   Clear
11:35 PM 35.4 °F - 29.3 °F 78% 30.04 in 10.0 mi Calm Calm - N/A   Clear
11:55 PM 34.9 °F - 29.7 °F 81% 30.05 in 10.0 mi Calm Calm - N/A   Clear